This demonstration page uses our WeatherBlox Daily Observations layout. Learn more.

Left ArrowRight Arrow

Hourly Observations for July 27, 2016

Temp ( °F °C ) Dew Point ( °F °C ) Humidity (%) Winds ( mph kmh ) Pressure ( in mb ) Visibility ( mi km ) Precip ( " mm )
12:53 am 00:53 Clear 72 22.2 64 17.8 76 76 S 6 9 29.99 1016 10 16 0.00 0.00
1:53 am 01:53 Partly Cloudy 71 21.7 61 16.1 71 71 NNW 30 48 30.09 1019 10 16 0.00 0.00
2:53 am 02:53 Mostly Cloudy 69 20.6 58 14.4 68 68 N 12 19 30.05 1018 10 16 0.00 0.03
3:53 am 03:53 Cloudy with Heavy Rain 66 18.9 61 16.1 84 84 VRB 5 7 30.04 1017 4 6 0.05 1.27
4:53 am 04:53 Clear 66 18.9 60 15.6 81 81 WNW 8 13 29.91 1013 10 16 0.02 0.51
5:53 am 05:53 Clear 64 17.8 60 15.6 87 87 W 7 11 29.89 1012 10 16 0.00 0.00
6:53 am 06:53 Sunny 63 17.2 60 15.6 90 90 W 7 11 29.94 1014 10 16 0.00 0.00
7:53 am 07:53 Sunny 64 17.8 61 16.1 90 90 W 7 11 29.99 1016 10 16 0.00 0.00
8:53 am 08:53 Sunny 68 20 62 16.7 81 81 W 12 19 30.00 1016 10 16 0.00 0.00
9:53 am 09:53 Sunny 72 22.2 64 17.8 76 76 N 7 11 30.03 1017 10 16 0.00 0.00
10:53 am 10:53 Mostly Sunny 73 22.8 63 17.2 71 71 NE 10 17 30.04 1017 10 16 0.00 0.00
11:53 am 11:53 Sunny 78 25.6 64 17.8 62 62 NNE 5 7 30.04 1017 10 16 0.00 0.00
12:53 pm 12:53 Sunny 81 27.2 65 18.3 58 58 NNE 8 13 30.03 1017 10 16 0.00 0.00
1:53 pm 13:53 Sunny 83 28.3 65 18.3 55 55 VRB 3 6 30.01 1016 10 16 0.00 0.00
2:53 pm 14:53 Sunny 84 28.9 66 18.9 55 55 NW 7 11 30.00 1016 10 16 0.00 0.00
3:53 pm 15:53 Sunny 85 29.4 66 18.9 53 53 N 3 6 29.97 1015 10 16 0.00 0.00
4:53 pm 16:53 Sunny 87 30.6 67 19.4 51 51 Calm 29.95 1014 10 16 0.00 0.00
5:53 pm 17:53 Sunny 85 29.4 68 20 57 57 NE 7 11 29.95 1014 10 16 0.00 0.00
6:53 pm 18:53 Sunny 84 28.9 68 20 59 59 NE 7 11 29.96 1015 10 16 0.00 0.00
7:53 pm 19:53 Sunny 83 28.3 68 20 61 61 NNE 6 9 29.98 1015 10 16 0.00 0.00
8:53 pm 20:53 Sunny 77 25 69 20.6 77 77 NNE 6 9 30.00 1016 8 13 0.00 0.00
9:53 pm 21:53 Partly Cloudy 79 26.1 65 18.3 62 62 VRB 3 6 29.98 1015 10 16 0.00 0.00
10:53 pm 22:53 Clear 72 22.2 67 19.4 84 84 NE 3 6 30.03 1017 10 16 0.00 0.00
11:53 pm 23:53 Clear 70 21.1 66 18.9 87 87 NNE 5 7 30.02 1017 10 16 0.00 0.00

Powered by AerisWeather